Change the Weather History Date:

Sunday, February 17, 2013

  Actual Average Record
Temperature  
Mean Temperature 74 °F -  
Max Temperature 82 °F 82 °F 87 °F (1964)
Min Temperature 66 °F 61 °F 54 °F (1965)
Cooling Degree Days 9    
Growing Degree Days 24 (Base 50)    
Moisture  
Dew Point 56 °F    
Average Humidity 53    
Maximum Humidity 70    
Minimum Humidity 38    
Precipitation  
Precipitation 0.00 in - - ()
Sea Level Pressure  
Sea Level Pressure 30.14 in    
Wind  
Wind Speed 6 mph (ESE)    
Max Wind Speed 15 mph    
Max Gust Speed 22 mph    
Visibility 10 miles    
Events      
Averages and records for this station are not official NWS values.
T = Trace of Precipitation, MM = Missing Value Source: NWS Daily Summary

Daily Weather History Graph

Daily Weather History Graph

Search for Another Location

Airport or City:

Trip Planner

Search our weather history database for the weather conditions in past years. The results will help you decide how hot, cold, wet, or windy it might be!

Date:

Astronomy

Feb. 17, 2013 Rise Set
Actual Time 7:08 AM HST 6:37 PM HST
Civil Twilight 6:46 AM HST 7:00 PM HST
Nautical Twilight 6:19 AM HST 7:26 PM HST
Astronomical Twilight 5:53 AM HST 7:52 PM HST
Moon 12:07 PM HST (2/17) 12:48 AM HST (2/17)
Length of Visible Light 12h 14m
Length of Day
11h 29m
Waxing Crescent, 51% of the Moon is Illuminated
Feb 17
Waxing Crescent
Feb 25
Full
Mar 4
Last Quarter
Mar 11
New
Mar 19
First Quarter

Hourly Weather History & Observations

Time (HST) Temp. Heat Index Dew Point Humidity Pressure Visibility Wind Dir Wind Speed Gust Speed Precip Events Conditions
12:56 AM 73.0 °F - 53.1 °F 49% 30.14 in 10.0 mi East 11.5 mph - N/A   Clear
1:56 AM 69.1 °F - 54.0 °F 58% 30.13 in 10.0 mi East 3.5 mph - N/A   Clear
2:56 AM 70.0 °F - 54.0 °F 57% 30.12 in 10.0 mi Calm Calm - N/A   Clear
3:56 AM 69.1 °F - 55.0 °F 61% 30.12 in 10.0 mi Calm Calm - N/A   Clear
4:56 AM 69.1 °F - 55.0 °F 61% 30.12 in 10.0 mi Calm Calm - N/A   Mostly Cloudy
5:56 AM 66.9 °F - 57.0 °F 70% 30.12 in 10.0 mi Calm Calm - N/A   Mostly Cloudy
6:56 AM 66.0 °F - 55.9 °F 70% 30.14 in 10.0 mi Calm Calm - N/A   Scattered Clouds
7:56 AM 73.0 °F - 62.1 °F 68% 30.16 in 10.0 mi WSW 5.8 mph - N/A   Mostly Cloudy
8:56 AM 75.0 °F - 61.0 °F 62% 30.16 in 10.0 mi WSW 5.8 mph - N/A   Scattered Clouds
9:56 AM 75.9 °F - 59.0 °F 56% 30.17 in 10.0 mi Calm Calm - N/A   Overcast
10:56 AM 77.0 °F - 61.0 °F 58% 30.17 in 10.0 mi NW 6.9 mph - N/A   Overcast
11:56 AM 78.1 °F - 61.0 °F 56% 30.15 in 10.0 mi West 6.9 mph - N/A   Mostly Cloudy
12:56 PM 79.0 °F - 62.1 °F 56% 30.13 in 10.0 mi WSW 11.5 mph - N/A   Partly Cloudy
1:56 PM 80.1 °F 80.9 °F 60.1 °F 50% 30.11 in 10.0 mi West 11.5 mph - N/A   Clear
2:56 PM 82.9 °F 82.0 °F 55.0 °F 38% 30.10 in 10.0 mi Variable 4.6 mph 21.9 mph N/A   Mostly Cloudy
3:56 PM 82.9 °F 82.0 °F 55.0 °F 38% 30.09 in 10.0 mi NNE 15.0 mph 20.7 mph N/A   Clear
4:56 PM 81.0 °F 80.7 °F 55.0 °F 41% 30.09 in 10.0 mi NNE 10.4 mph 20.7 mph N/A   Clear
5:56 PM 79.0 °F - 52.0 °F 39% 30.10 in 10.0 mi SE 5.8 mph 17.3 mph N/A   Clear
6:56 PM 77.0 °F - 53.1 °F 43% 30.12 in 10.0 mi ENE 8.1 mph - N/A   Clear
7:56 PM 77.0 °F - 53.1 °F 43% 30.14 in 10.0 mi Variable 4.6 mph - N/A   Clear
8:56 PM 75.9 °F - 52.0 °F 43% 30.16 in 10.0 mi East 9.2 mph - N/A   Clear
9:56 PM 75.0 °F - 51.1 °F 43% 30.18 in 10.0 mi East 11.5 mph 17.3 mph N/A   Clear
10:56 PM 73.0 °F - 53.1 °F 49% 30.18 in 10.0 mi SE 6.9 mph - N/A   Partly Cloudy
11:56 PM 71.1 °F - 57.9 °F 63% 30.18 in 10.0 mi SSE 6.9 mph - N/A   Clear